Regional Weather Roundup
Issued by NWS Grand Forks, ND

Home | Current Version | Previous Version | Graphics & Text | Print | Product List | Glossary On
Versions: 1 2 3 4 5 6 7 8 9 10 11 12 13 14 15 16 17 18 19 20 21 22 23 24 25 26 27 28 29 30 31 32 33 34 35 36 37 38 39 40 41 42 43 44 45 46 47 48 49 50
000
ASUS43 KFGF 221031
RWRFGF
PRAIRIE TO PINES  WEATHER ROUNDUP
NATIONAL WEATHER SERVICE EASTERN NORTH DAKOTA/GRAND FORKS ND
500 AM CDT SAT JUL 22 2017

 **SATELLITE DATA USED TO AUGMENT SKY COVER AT AUTOMATED STATIONS**
 *****  WEATHER ACROSS EASTERN NORTH DAKOTA  *****

CITY           SKY/WX    TMP DP  RH WIND       PRES   REMARKS
GRAND FORKS    FOG       68  68 100 CALM      29.77F VSB 1/4
GRAND FRKS AFB FAIR      63  63 100 W6        29.78F FOG
DEVILS LAKE    FAIR      64  61  90 W8        29.83S
FARGO          FAIR      67  65  93 SE6       29.79F
WAHPETON ARPT  PTSUNNY   64  61  88 E14G20    29.87S
$$

 ***** WEATHER ACROSS CENTRAL AND WESTERN NORTH DAKOTA  *****

CITY           SKY/WX    TMP DP  RH WIND       PRES   REMARKS
BISMARCK       FAIR      63  61  93 W6        29.91R
MINOT          FAIR      60  52  74 SW9       29.88R
JAMESTOWN      FAIR      63  60  90 SW3       29.83R
MINOT AFB      FAIR      57  53  86 W9        29.87R
GARRISON         N/A     56  51  84 CALM      29.91R
WILLISTON      FAIR      56  47  71 N3        29.95R
DICKINSON      FAIR      53  47  79 W6        29.96R
HETTINGER      FAIR      53  47  79 NW3       30.00R
$$

 *****  OTHER AIRPORT OBSERVATIONS IN OUR AREA  *****

CITY           SKY/WX    TMP DP  RH WIND       PRES   REMARKS
WALHALLA       NOT AVBL
GRAFTON AIRPOR FAIR      61  61 100 SW9       29.77F
VALLEY CITY AR FAIR      63  63 100 S5        29.85R
CANDO          NOT AVBL
CAVALIER APRT  FAIR      61  61 100 SW6       29.75F
GWINNER        MOSUNNY   66  66 100 CALM      29.84S
SHEYENNE NWR     N/A     66  66 100 SE5       29.95S
ROLLA            N/A     59  61 100 W10       29.83R
 ***** THE ABOVE OBSERVATIONS ARE NON NWS ARE NOT QUALITY
       CONTROLLED AND MAY MIS-REPORT RAIN FOR SNOW...
$$

  *****  WEATHER ACROSS NORTHERN MINNESOTA  *****

CITY           SKY/WX    TMP DP  RH WIND       PRES   REMARKS
FLAG ISLAND    FAIR      66  61  82 CALM      29.74F
WARROAD        FAIR      61  57  88 CALM      29.75F
ROSEAU         FAIR      61  55  82 S7        29.75F
HALLOCK        FAIR      63  63 100 SW3       29.75S
THF RVR FALLS  CLOUDY    64  64 100 SW5       29.79F
BAUDETTE       FAIR      59  59 100 CALM      29.78F
WASKISH        NOT AVBL
CROOKSTON      CLOUDY    66  66 100 W5        29.78F
STEPHEN NDAWN    N/A     64  64 100 S3          N/A
GREENBUSH NDAW   N/A    N/A N/A N/A SE7         N/A
$$
  *****  WEATHER ACROSS CENTRAL AND WEST MINNESOTA  *****

CITY           SKY/WX    TMP DP  RH WIND       PRES   REMARKS
FOSSTON        FAIR      63  61  94 NW5       29.80R
BEMIDJI        LGT RAIN  64  63  94 SW14G21   29.76F
PARK RAPIDS    TSTM      67  64  90 S7        29.83F
ELBOW LAKE     PTSUNNY   68  67  99 N15G21    29.87R
WADENA         CLOUDY    66  66 100 NW13G23   29.86R
DETROIT LAKES  RAIN      64  63  94 SE5       29.85F
MOORHEAD       FAIR      66  63  88 CALM      29.81F
FERGUS FALLS   HVY RAIN  63  63 100 NE13G26   29.88R
MORRIS MN      FAIR      68  66  94 NE5       29.82R
STAPLES        MOCLDY    64  63  94 N12G23    29.86R
$$
  *****  WEATHER ELSEWHERE ACROSS MINNESOTA  *****

CITY           SKY/WX    TMP DP  RH WIND       PRES   REMARKS
DULUTH         CLOUDY    59  59 100 E6        29.84R FOG
INTRNTL FALLS  FAIR      56  54  93 S3        29.80F
ELY            FAIR      52  50  93 CALM      29.84S
CLOQUET        FOG       61  59  94 CALM      29.84R VSB 1/4
WHEATON        MOCLDY    70  66  88 NW18G25   29.88R
BRAINERD       FAIR      62  61  96 NE5       29.82R FOG
HIBBING        FOG       59  59 100 CALM      29.83R VSB 1/4
ALEXANDRIA     FAIR      69  67  93 SW7       29.83R
SAINT CLOUD    FAIR      67  67 100 S3        29.79R
MINNEAPOLIS    MOCLDY    72  65  78 W3        29.79R
$$

  *****  WEATHER ACROSS SOUTH DAKOTA  *****

CITY           SKY/WX    TMP DP  RH WIND       PRES   REMARKS
SIOUX FALLS    FAIR      72  68  87 SE5       29.79F
BROOKINGS      FAIR      67  65  93 SW7       29.83R
WATERTOWN      FAIR      68  68 100 W7        29.83R
HURON          FAIR      66  65  96 S7        29.85R
SISSETON         N/A     72  68  87 NW8       29.84R
ABERDEEN       FAIR      67  67 100 NW6       29.84R
MITCHELL       FAIR      68  67  96 W5        29.84R
PIERRE         FAIR      67  65  93 W6        29.86S
MOBRIDGE         N/A     66  64  93 N8        29.87R
RAPID CITY     FAIR      63  43  48 N9        30.00S
$$

  *****  SOME WEATHER IN NEARBY STATES *****

CITY           SKY/WX    TMP DP  RH WIND       PRES   REMARKS
GLASGOW MT     FAIR      60  40  47 NW7       30.01R
GREAT FALLS MT FAIR      58  37  45 E7        30.14S
CHEYENNE WY    FAIR      59  53  80 W6        30.19F
SCOTTSBLUFF NE FAIR      66  55  67 NW7       30.06F
OMAHA NE       CLOUDY    80  75  84 N6        29.76R
DES MOINES IA  MOCLDY    82  73  74 SE3       29.77R
DAVENPORT IA   TSTM      69  68  96 S10       29.95R FOG
CHICAGO IL     RAIN      73  69  87 SW21G28   29.80F
EAU CLAIRE WI  CLOUDY    66  65  96 CALM      29.80R
LA CROSSE WI   CLOUDY    73  70  90 S3        29.77R
$$

  *****  SOME NATIONAL WEATHER *****

CITY           SKY/WX    TMP DP  RH WIND       PRES   REMARKS
LA GUARDIA NY  MOCLDY    79  70  74 E3        29.86R
RALEIGH NC     FAIR      76  72  87 SW7       29.96S
ATLANTA GA     FAIR      74  71  91 SW5       30.00S
NEW ORLEANS LA CLOUDY    80  77  90 CALM      29.98S
OKLAHOMA CITY  FAIR      76  68  76 S7        29.92F
ALBUQUERQUE NM FAIR      69  57  65 SE7       30.15F
SALT LAKE CITY FAIR      79  51  37 SE9       30.06R
LOS ANGELES CA MOCLDY    67  63  87 CALM      29.91S
BOISE ID       FAIR      62  44  51 SW6       30.07R
SEATTLE WA     MOCLDY    65  53  65 S7        30.16S
$$

*** WEATHER ACROSS MANITOBA...SASKATCHEWAN AND ONTARIO ***
                ***ONTARIO***

CITY           SKY/WX    TMP DP  RH WIND       PRES   REMARKS
GERALDTON      MOCLDY    54  43  66 E2        29.96R
THUNDER BAY    CLOUDY    59  54  82 CALM      29.86S
SIOUX LOOKOUT  MOCLDY    61  52  72 E6        29.84F
TORONTO        CLOUDY    70  59  68 VRB2      29.89F
BIG TROUT LK   CLEAR     46  46 100 W6        29.95S
PICKLE LAKE    NOT AVBL
DRYDEN         CLEAR     59  57  94 NE5       29.82F
KENORA         MOCLDY    61  59  94 SE7       29.80S
$$
                *** MANITOBA***

CITY           SKY/WX    TMP DP  RH WIND       PRES   REMARKS
BRANDON        PTCLDY    57  55  94 W10       29.77S
DAUPHIN        CLOUDY    59  57  94 NW8       29.78R
ISLAND LAKE    NOT AVBL
PILOT MOUND      N/A     57  57 100 SW8         N/A
THE PAS        MOCLDY    63  48  59 E6        29.88R
THOMPSON       CLEAR     41  37  87 CALM      29.93S
WINNIPEG       MOCLDY    59  59 100 N7        29.73R
LYNN LAKE      CLEAR     46  45  93 VRB2      29.94S
CHURCHILL      CLEAR     50  45  81 SW8       29.93S
GILLAM         CLEAR     48  43  81 SE6       29.97S
$$
                ***SASKATCHEWAN***

CITY           SKY/WX    TMP DP  RH WIND       PRES   REMARKS
ESTEVAN        PTCLDY    52  52 100 W17       29.90S
KINDERSLEY     PTCLDY    50  48  93 NW6       29.99R
LLOYDMINSTER   CLEAR     52  52 100 W8        29.97R FOG
PRINCE ALBERT  CLOUDY    57  55  94 N7        29.94R
REGINA         FOG       48  48 100 W7        29.93R VSB 3/4
YORKTON        LGT RAIN  57  57 100 NW7       29.86S
N. BATTLEFORD  CLEAR     52  52 100 W5        29.96S
LA RONGE       MOCLDY    50  50 100 W2        29.94R
SASKATOON      PTCLDY    50  48  93 NW3       29.94S
SWIFT CURRENT  CLEAR     52  50  93 W10       29.99R
$$
NOTE: THESE ARE AUTOMATED STATIONS WITH LIMITED QUALITY CONTROL
      "FAIR" INDICATES FEW OR NO CLOUDS BELOW 12,000 FEET WITH NO
      SIGNIFICANT WEATHER AND/OR OBSTRUCTIONS TO VISIBILITY.
      SKY/WX - SKY CONDITION AND SIGNIFICANT WEATHER.
      TMP - AIR TEMPERATURE.    DP   - DEWPOINT TEMPERATURE.
      RH  - RELATIVE HUMIDITY.  PRES - PRESSURE.
      HX  - HEAT INDEX.         WCI  - WIND CHILL INDEX.
$




USA.gov is the U.S. government's official web portal to all federal, state and local government web resources and services.